| time (UTC) | temp C | wind direction | speed KPH | gust KPH | rain 1hr cm | rain 24hr cm | rain mn cm | humidity % | barometer mb |
| 20260831094012 | 21 | 221 | 11.3 | 30.6 | 0.00 | 0.86 | 0.86 | 75 | 1016.1 |
| 20260831093012 | 20 | 245 | 11.3 | 30.6 | 0.00 | 0.86 | 0.86 | 74 | 1016.1 |
| 20260831092012 | 20 | 263 | 9.7 | 27.4 | 0.00 | 0.86 | 0.86 | 73 | 1016.2 |
| 20260831091012 | 19 | 279 | 14.5 | 27.4 | 0.00 | 0.86 | 0.86 | 73 | 1016.1 |
| 20260831090012 | 20 | 274 | 11.3 | 25.7 | 0.00 | 0.86 | 0.86 | 76 | 1016.1 |
| 20260831085012 | 18 | 248 | 11.3 | 30.6 | 0.00 | 0.86 | 0.86 | 77 | 1016.1 |
| 20260831084012 | 18 | 250 | 14.5 | 30.6 | 0.00 | 0.86 | 0.86 | 76 | 1016.0 |
| 20260831083012 | 19 | 263 | 14.5 | 27.4 | 0.00 | 0.86 | 0.86 | 76 | 1015.9 |
| 20260831082012 | 19 | 188 | 11.3 | 29.0 | 0.00 | 0.86 | 0.86 | 81 | 1015.8 |
| 20260831081012 | 19 | 280 | 8.0 | 19.3 | 0.00 | 0.86 | 0.86 | 81 | 1015.8 |
| 20260831080012 | 18 | 228 | 9.7 | 20.9 | 0.00 | 0.86 | 0.86 | 84 | 1015.7 |
| 20260831075012 | 18 | 225 | 9.7 | 25.7 | 0.00 | 0.86 | 0.86 | 85 | 1015.7 |
| 20260831074012 | 18 | 250 | 9.7 | 25.7 | 0.00 | 0.86 | 0.86 | 86 | 1015.7 |
| 20260831073013 | 18 | 296 | 6.4 | 19.3 | 0.00 | 0.86 | 0.86 | 89 | 1015.7 |
| 20260831072011 | 17 | 301 | 9.7 | 20.9 | 0.00 | 0.86 | 0.86 | 88 | 1015.6 |
| 20260831071012 | 17 | 225 | 6.4 | 20.9 | 0.00 | 0.86 | 0.86 | 89 | 1015.5 |
| 20260831070012 | 17 | 256 | 11.3 | 24.1 | 0.00 | 0.86 | 0.86 | 90 | 1015.4 |
| 20260831065012 | 17 | 238 | 6.4 | 19.3 | 0.00 | 0.86 | 0.86 | 91 | 1015.3 |
| 20260831064011 | 16 | 223 | 4.8 | 19.3 | 0.00 | 0.86 | 0.86 | 92 | 1015.3 |
| 20260831063012 | 16 | 254 | 6.4 | 19.3 | 0.00 | 0.86 | 0.86 | 92 | 1015.4 |
| 20260831062012 | 16 | 217 | 4.8 | 12.9 | 0.00 | 0.86 | 0.86 | 91 | 1015.2 |
| 20260831061011 | 16 | 194 | 4.8 | 12.9 | 0.00 | 0.86 | 0.86 | 92 | 1014.9 |
| 20260831060012 | 16 | 196 | 6.4 | 19.3 | 0.00 | 0.86 | 0.86 | 92 | 1014.7 |
| 20260831055011 | 16 | 275 | 6.4 | 19.3 | 0.00 | 0.86 | 0.86 | 92 | 1014.6 |
| 20260831054011 | 16 | 278 | 6.4 | 16.1 | 0.00 | 0.86 | 0.86 | 92 | 1014.6 |
| 20260831053011 | 16 | 267 | 8.0 | 30.6 | 0.00 | 0.86 | 0.86 | 92 | 1014.5 |
| 20260831052011 | 16 | 232 | 4.8 | 19.3 | 0.00 | 0.86 | 0.86 | 92 | 1014.2 |
| 20260831051011 | 16 | 257 | 4.8 | 11.3 | 0.00 | 0.86 | 0.86 | 92 | 1014.3 |
| 20260831050011 | 16 | 219 | 3.2 | 6.4 | 0.00 | 0.86 | 0.86 | 92 | 1014.0 |
| 20260831045011 | 16 | 190 | 0.0 | 3.2 | 0.00 | 0.86 | 0.86 | 91 | 1014.0 |
| 20260831044011 | 16 | 190 | 0.0 | 3.2 | 0.00 | 0.86 | 0.86 | 91 | 1013.8 |
| 20260831043011 | 16 | 190 | 1.6 | 4.8 | 0.00 | 0.86 | 0.86 | 91 | 1013.6 |
| 20260831042011 | 16 | 190 | 1.6 | 8.0 | 0.03 | 0.86 | 0.86 | 91 | 1013.4 |
| 20260831041011 | 16 | 186 | 3.2 | 8.0 | 0.03 | 0.86 | 0.86 | 91 | 1013.4 |
| 20260831040011 | 16 | 180 | 1.6 | 6.4 | 0.03 | 0.86 | 0.86 | 91 | 1013.6 |
| 20260831035011 | 16 | 192 | 1.6 | 9.7 | 0.05 | 0.86 | 0.86 | 90 | 1013.6 |
| 20260831034010 | 16 | 191 | 1.6 | 6.4 | 0.10 | 0.86 | 0.86 | 90 | 1013.3 |
| 20260831033011 | 16 | 191 | 1.6 | 8.0 | 0.48 | 0.86 | 0.86 | 89 | 1013.3 |
| 20260831032011 | 16 | 192 | 3.2 | 8.0 | 0.84 | 0.84 | 0.84 | 88 | 1013.4 |
| 20260831031010 | 16 | 194 | 1.6 | 6.4 | 0.84 | 0.84 | 0.84 | 87 | 1013.5 |
| 20260831030010 | 16 | 194 | 4.8 | 11.3 | 0.84 | 0.84 | 0.84 | 86 | 1013.4 |
| 20260831025019 | 16 | 180 | 4.8 | 16.1 | 0.81 | 0.81 | 0.81 | 85 | 1013.6 |
| 20260831024010 | 16 | 240 | 4.8 | 14.5 | 0.76 | 0.76 | 0.76 | 83 | 1013.5 |
| 20260831023011 | 16 | 190 | 8.0 | 20.9 | 0.38 | 0.38 | 0.38 | 81 | 1014.0 |
| 20260831022010 | 16 | 144 | 1.6 | 4.8 | 0.00 | 0.00 | 0.00 | 79 | 1013.0 |
| 20260831021010 | 16 | 124 | 1.6 | 4.8 | 0.00 | 0.00 | 0.00 | 78 | 1012.0 |
| 20260831020010 | 16 | 124 | 1.6 | 4.8 | 0.00 | 0.00 | 0.00 | 79 | 1012.3 |
| 20260831015010 | 16 | 124 | 1.6 | 3.2 | 0.00 | 0.00 | 0.00 | 79 | 1012.5 |
| 20260831014010 | 16 | 124 | 0.0 | 3.2 | 0.00 | 0.00 | 0.00 | 79 | 1012.6 |
| 20260831013010 | 16 | 124 | 0.0 | 3.2 | 0.00 | 0.00 | 0.00 | 79 | 1012.6 |
| 20260831012011 | 16 | 124 | 1.6 | 6.4 | 0.00 | 0.00 | 0.00 | 81 | 1012.7 |
| 20260831011009 | 15 | 124 | 3.2 | 6.4 | 0.00 | 0.00 | 0.00 | 85 | 1012.7 |
| 20260831010010 | 15 | 124 | 3.2 | 6.4 | 0.00 | 0.00 | 0.00 | 86 | 1013.0 |
| 20260831005010 | 15 | 135 | 3.2 | 4.8 | 0.00 | 0.00 | 0.00 | 86 | 1013.2 |
| 20260831004010 | 15 | 135 | 3.2 | 4.8 | 0.00 | 0.00 | 0.00 | 86 | 1013.1 |
| 20260831003010 | 15 | 135 | 3.2 | 6.4 | 0.00 | 0.00 | 0.00 | 86 | 1013.1 |
| 20260831002010 | 15 | 136 | 1.6 | 4.8 | 0.00 | 0.00 | 0.00 | 86 | 1013.5 |
| 20260831001010 | 15 | 136 | 1.6 | 3.2 | 0.00 | 0.00 | 0.00 | 86 | 1013.6 |
| 20260831000010 | 15 | 136 | 1.6 | 4.8 | 0.00 | 0.00 | 0.00 | 85 | 1013.7 |
| 20260830235010 | 15 | 136 | 1.6 | 3.2 | 0.00 | 0.00 | 0.00 | 85 | 1013.7 |
| 20260830234009 | 15 | 136 | 3.2 | 4.8 | 0.00 | 0.00 | 0.00 | 85 | 1013.8 |
| 20260830233010 | 15 | 136 | 3.2 | 4.8 | 0.00 | 0.00 | 0.00 | 85 | 1014.0 |
| 20260830232011 | 15 | 136 | 1.6 | 6.4 | 0.00 | 0.00 | 0.00 | 85 | 1014.0 |
| 20260830231009 | 15 | 212 | 0.0 | 0.0 | 0.00 | 0.00 | 0.00 | 81 | 1014.1 |
| 20260830230010 | 15 | 212 | 0.0 | 0.0 | 0.00 | 0.00 | 0.00 | 81 | 1014.1 |
| 20260830225010 | 15 | 212 | 0.0 | 0.0 | 0.00 | 0.00 | 0.00 | 80 | 1014.1 |
| 20260830224010 | 15 | 212 | 0.0 | 0.0 | 0.00 | 0.00 | 0.00 | 80 | 1014.1 |
| 20260830223010 | 15 | 212 | 0.0 | 0.0 | 0.00 | 0.00 | 0.00 | 78 | 1014.2 |
| 20260830222016 | 15 | 212 | 0.0 | 0.0 | 0.00 | 0.00 | 0.00 | 78 | 1014.2 |
| 20260830221010 | 15 | 212 | 0.0 | 0.0 | 0.00 | 0.00 | 0.00 | 77 | 1014.3 |
| 20260830220009 | 15 | 212 | 0.0 | 0.0 | 0.00 | 0.00 | 0.00 | 76 | 1014.4 |
| 20260830215008 | 15 | 212 | 0.0 | 0.0 | 0.00 | 0.00 | 0.00 | 74 | 1014.5 |
| 20260830214008 | 16 | 212 | 0.0 | 0.0 | 0.00 | 0.00 | 0.00 | 74 | 1014.4 |
| 20260830213009 | 16 | 212 | 0.0 | 0.0 | 0.00 | 0.00 | 0.00 | 73 | 1014.4 |
| 20260830212008 | 16 | 212 | 0.0 | 0.0 | 0.00 | 0.00 | 0.00 | 72 | 1014.3 |
| 20260830211008 | 16 | 212 | 0.0 | 0.0 | 0.00 | 0.00 | 0.00 | 72 | 1014.4 |
| 20260830210008 | 16 | 212 | 0.0 | 0.0 | 0.00 | 0.00 | 0.00 | 72 | 1014.4 |
| 20260830205008 | 16 | 212 | 0.0 | 0.0 | 0.00 | 0.00 | 0.00 | 72 | 1014.5 |
| 20260830204008 | 17 | 212 | 0.0 | 0.0 | 0.00 | 0.00 | 0.00 | 71 | 1014.5 |
| 20260830203013 | 17 | 212 | 0.0 | 0.0 | 0.00 | 0.00 | 0.00 | 71 | 1014.5 |
| 20260830202014 | 17 | 212 | 0.0 | 0.0 | 0.00 | 0.00 | 0.00 | 70 | 1014.5 |
| 20260830201013 | 17 | 212 | 0.0 | 0.0 | 0.00 | 0.00 | 0.00 | 69 | 1014.4 |
| 20260830200013 | 17 | 212 | 0.0 | 0.0 | 0.00 | 0.00 | 0.00 | 69 | 1014.5 |
| 20260830195013 | 18 | 212 | 0.0 | 0.0 | 0.00 | 0.00 | 0.00 | 68 | 1014.5 |
| 20260830194013 | 18 | 212 | 0.0 | 0.0 | 0.00 | 0.00 | 0.00 | 66 | 1014.5 |
| 20260830193013 | 18 | 212 | 0.0 | 0.0 | 0.00 | 0.00 | 0.00 | 65 | 1014.4 |
| 20260830192013 | 19 | 212 | 0.0 | 0.0 | 0.00 | 0.00 | 0.00 | 64 | 1014.4 |
| 20260830191013 | 19 | 212 | 0.0 | 0.0 | 0.00 | 0.00 | 0.00 | 62 | 1014.4 |
| 20260830190013 | 20 | 212 | 0.0 | 0.0 | 0.00 | 0.00 | 0.00 | 60 | 1014.4 |
| 20260830185013 | 20 | 212 | 0.0 | 0.0 | 0.00 | 0.00 | 0.00 | 59 | 1014.4 |
| 20260830184013 | 20 | 212 | 0.0 | 3.2 | 0.00 | 0.00 | 0.00 | 58 | 1014.3 |
| 20260830183013 | 21 | 212 | 1.6 | 4.8 | 0.00 | 0.00 | 0.00 | 57 | 1014.2 |
| 20260830182013 | 21 | 212 | 3.2 | 4.8 | 0.00 | 0.00 | 0.00 | 56 | 1014.2 |
| 20260830181013 | 21 | 212 | 3.2 | 6.4 | 0.00 | 0.00 | 0.00 | 56 | 1014.2 |
| 20260830180013 | 22 | 212 | 3.2 | 6.4 | 0.00 | 0.00 | 0.00 | 55 | 1014.1 |
| 20260830175013 | 22 | 217 | 3.2 | 9.7 | 0.00 | 0.00 | 0.00 | 55 | 1013.9 |
| 20260830174013 | 22 | 233 | 3.2 | 6.4 | 0.00 | 0.00 | 0.00 | 54 | 1013.9 |
| 20260830173013 | 23 | 172 | 3.2 | 9.7 | 0.00 | 0.00 | 0.00 | 54 | 1013.8 |
| 20260830172012 | 23 | 189 | 4.8 | 14.5 | 0.00 | 0.00 | 0.00 | 54 | 1013.7 |
| 20260830171013 | 23 | 226 | 3.2 | 16.1 | 0.00 | 0.00 | 0.00 | 54 | 1013.8 |
| 20260830170012 | 23 | 196 | 6.4 | 16.1 | 0.00 | 0.00 | 0.00 | 54 | 1013.9 |
| 20260830165012 | 23 | 218 | 4.8 | 11.3 | 0.00 | 0.00 | 0.00 | 53 | 1013.8 |
| 20260830164012 | 23 | 225 | 6.4 | 19.3 | 0.00 | 0.00 | 0.00 | 54 | 1013.7 |
| 20260830163012 | 24 | 241 | 8.0 | 17.7 | 0.00 | 0.00 | 0.00 | 54 | 1013.8 |
| 20260830162013 | 24 | 246 | 6.4 | 19.3 | 0.00 | 0.00 | 0.00 | 54 | 1013.8 |
| 20260830161012 | 24 | 183 | 8.0 | 20.9 | 0.00 | 0.00 | 0.00 | 53 | 1013.6 |
| 20260830160012 | 24 | 163 | 6.4 | 14.5 | 0.00 | 0.00 | 0.00 | 53 | 1013.6 |
| 20260830155012 | 24 | 220 | 8.0 | 17.7 | 0.00 | 0.00 | 0.00 | 53 | 1013.8 |
| 20260830154012 | 25 | 219 | 6.4 | 17.7 | 0.00 | 0.00 | 0.00 | 53 | 1013.7 |
| 20260830153012 | 25 | 211 | 6.4 | 17.7 | 0.00 | 0.00 | 0.00 | 53 | 1013.7 |
| 20260830152012 | 24 | 179 | 8.0 | 20.9 | 0.00 | 0.00 | 0.00 | 53 | 1013.9 |
| 20260830151012 | 24 | 192 | 6.4 | 16.1 | 0.00 | 0.00 | 0.00 | 53 | 1014.0 |
| 20260830150013 | 24 | 246 | 6.4 | 12.9 | 0.00 | 0.00 | 0.00 | 54 | 1014.1 |
| 20260830145012 | 24 | 261 | 4.8 | 14.5 | 0.00 | 0.00 | 0.00 | 54 | 1014.2 |
| 20260830144012 | 24 | 297 | 8.0 | 19.3 | 0.00 | 0.00 | 0.00 | 54 | 1014.2 |
| 20260830143012 | 24 | 225 | 8.0 | 20.9 | 0.00 | 0.00 | 0.00 | 52 | 1014.1 |
| 20260830142011 | 25 | 194 | 8.0 | 20.9 | 0.00 | 0.00 | 0.00 | 53 | 1014.3 |
| 20260830141011 | 25 | 283 | 9.7 | 19.3 | 0.00 | 0.00 | 0.00 | 52 | 1014.3 |
| 20260830140012 | 25 | 221 | 9.7 | 20.9 | 0.00 | 0.00 | 0.00 | 52 | 1014.2 |
| 20260830135012 | 25 | 263 | 9.7 | 24.1 | 0.00 | 0.00 | 0.00 | 52 | 1014.3 |
| 20260830134012 | 25 | 201 | 9.7 | 20.9 | 0.00 | 0.00 | 0.00 | 52 | 1014.4 |
| 20260830133011 | 25 | 225 | 11.3 | 24.1 | 0.00 | 0.00 | 0.00 | 53 | 1014.4 |
| 20260830132012 | 25 | 213 | 11.3 | 27.4 | 0.00 | 0.00 | 0.00 | 52 | 1014.5 |
| 20260830131012 | 25 | 219 | 11.3 | 24.1 | 0.00 | 0.00 | 0.00 | 51 | 1014.5 |
| 20260830130012 | 25 | 29 | 9.7 | 27.4 | 0.00 | 0.00 | 0.00 | 52 | 1014.5 |
| 20260830125012 | 25 | 232 | 4.8 | 20.9 | 0.00 | 0.00 | 0.00 | 53 | 1014.5 |
| 20260830124011 | 25 | 12 | 12.9 | 27.4 | 0.00 | 0.00 | 0.00 | 52 | 1014.5 |
| 20260830123012 | 25 | 252 | 11.3 | 25.7 | 0.00 | 0.00 | 0.00 | 50 | 1014.6 |
| 20260830122011 | 26 | 188 | 9.7 | 24.1 | 0.00 | 0.00 | 0.00 | 53 | 1014.7 |
| 20260830121011 | 25 | 208 | 8.0 | 27.4 | 0.00 | 0.00 | 0.00 | 52 | 1014.5 |
| 20260830120012 | 25 | 161 | 12.9 | 29.0 | 0.00 | 0.00 | 0.00 | 52 | 1014.6 |
| 20260830115012 | 25 | 246 | 12.9 | 24.1 | 0.00 | 0.00 | 0.00 | 50 | 1014.7 |
| 20260830114012 | 25 | 249 | 12.9 | 29.0 | 0.00 | 0.00 | 0.00 | 52 | 1014.6 |
| 20260830113011 | 25 | 209 | 12.9 | 27.4 | 0.00 | 0.00 | 0.00 | 50 | 1014.6 |
| 20260830112011 | 25 | 240 | 12.9 | 22.5 | 0.00 | 0.00 | 0.00 | 51 | 1014.7 |
| 20260830111011 | 25 | 227 | 9.7 | 29.0 | 0.00 | 0.00 | 0.00 | 51 | 1014.8 |
| 20260830110012 | 25 | 292 | 12.9 | 27.4 | 0.00 | 0.00 | 0.00 | 51 | 1014.9 |
| 20260830105012 | 25 | 184 | 6.4 | 22.5 | 0.00 | 0.00 | 0.00 | 53 | 1015.0 |
| 20260830104010 | 25 | 183 | 11.3 | 22.5 | 0.00 | 0.00 | 0.00 | 51 | 1015.0 |
| 20260830103017 | 24 | 215 | 4.8 | 24.1 | 0.00 | 0.00 | 0.00 | 53 | 1015.1 |
| 20260830102012 | 23 | 228 | 9.7 | 22.5 | 0.00 | 0.00 | 0.00 | 53 | 1015.2 |
| 20260830101010 | 23 | 200 | 11.3 | 25.7 | 0.00 | 0.00 | 0.00 | 52 | 1015.2 |
| 20260830100011 | 23 | 246 | 9.7 | 25.7 | 0.00 | 0.00 | 0.00 | 50 | 1015.3 |